NOAA 17 DEB, 48710

Orbit data source: Space-Track

NOAA 17 DEB, 48710 is space debris in SSO originally from a launch on Mon, 24 Jun 2002 UTC launched from the Air Force Western Test Range (AFWTR). Debris objects in space refer to the collection of defunct objects orbiting the Earth. Examples of debris include non-operational satellites, rocket bodies, and fragments generated from explosions, collisions, or faulty payload assembly.

Loading next visibility...
Identifier
48710, 2002-032AT
Orbit
SSO
Country
Flag of USUS
Related business
Manufacturer
Unknown
Mission
Spacecraft
Bus & Motor
Unknown
Mass
Unknown
Launch date (UTC)
2002-06-24 (24 years ago)
Launch vehicle
Unknown
Launch site
Air Force Western Test Range (AFWTR)
Object type
Payload
Rocket body
Debris
Shape & HBR
Unknown shape, 0.1 m
Radar Cross Section
Medium (>0.1 m² and <1 m²)

Expand to show TLE details & history
Last TLE update: 3 days ago

TLE from 3 days ago
0 NOAA 17 DEB
1 48710U 02032AT  26170.97440966  .00001418  00000-0  45161-3 0  9992
2 48710  98.8734 174.4590 0006460 143.2322 216.9310 14.41439351275331
Epoch: 2026-06-19T23:23Z
TLE epoch observation values (Epoch: 2026-06-19T23:23:08.994Z)
Latitude
-0.00002°
Longitude
-84.52416°
Altitude
760.37 km
Speed
7.472 km/s
True Right ascension
11h 37m 50s
True Declination
0° 00' 00"
Sunlit
Object was in daylight at epoch
Visualization orbit readout
Latitude
Unknown
Longitude
Unknown
Altitude
Unknown
Speed
Unknown
Apparent Right ascension
Unknown
Apparent Declination
Unknown
Sunlit
N/A
Visualization observer readout
Local Sidereal Time
23:20:07
Azimuth
Unknown
Elevation
Unknown
Doppler factor
Unknown
Orbital elements
Apogee altitude
755.49 km
Perigee altitude
746.279 km
Semi-major axis
7,129.022 km
Eccentricity
0.00065
Inclination
98.8734°
RAAN
174.459°
Arg. of periapsis
143.2322°
True anomaly
216.88655°
Mean anomaly
216.931°
Eccentric anomaly
216.90877°
Mean motion
3.60577 °/min
Orbital period
99.84 mins
BSTAR
0.00045161
Loading maneuver chart data...
Computing Atmospheric mass density...

Documentation

Showing up to 5 results
|